LIMP

Parma Airport

Airport
ICAO code
LIMP
IATA Code
PMF
Summary
ICAO Region
EUR
ICAO Territory
Location

Parma, Emilia-Romagna

Serving
Parma
Elevation
161 ft
Coordinates
44° 49' 34" N , 10° 17' 49" E
KCC
Metar
LIMP 210550Z 10004KT 8000 NSC 22/21 Q1009

Parma Airport, also known as Giuseppe Verdi Airport or Parma "Giuseppe Verdi" Airport, is located 1.3 NM ( northwest of Parma, a city in the Emilia-Romagna region of Italy.

Climatology

Humid subtropical climate (Köppen climate classification Cfa)

Runways

Designator Length Width Surface Rops
2/20 2122 45 ASP Yes/Yes

Airport map

Aerial View

SKYbrary Partners:

Safety knowledge contributed by: